星链-5680 (STARLINK-5680 )

导读 | 豆包AI

STARLINK-5680是美国太空探索技术公司(SpaceX)发射的一颗星链卫星,于2023年2月2日发射入轨,隶属于星链互联网星座项目。星链项目旨在为全球提供高速低延迟互联网服务,该卫星的发射进一步扩充了星链星座的卫星数量,提升了星座的服务覆盖能力和网络容量。

基本信息
目录编号:
55455
目录名称:
STARLINK-5680
国际标识:
2023-015G
轨道中心:
EARTH
卫星名称:
星链-5680
卫星全名:
星链-5680 (STARLINK-5680 )
卫星状态:
在轨 (已飞行1137 天)
发射日期:
2023-02-02 UTC
国别 :
美国 (US)
星等 :
--
轨道信息
数据来源 国际轨道数据
星历时间: 2026-03-15T14:00:01+0800
10小时前
查看轨道信息
半长轴: 6922.031km
偏心率: 0.0001312
轨道倾角: 43.000°
近地点辐角 290.781°
升交点赤经 296.075°
平近点角 188.783°
近地点: 542.985km
远地点: 544.803km
周期: 95.523分钟
每日圈数: 15.074833
详细信息
固有亮度:
5
最大亮度:
2.5
卫星平台:
Starlink v1.5
覆盖范围:
全球
运营商:
太空探索技术公司
运营商所在国:
美国
制造商(研发单位):
太空探索技术公司
制造商所在国:
美国
使用方式:
暂无
卫星简介
星链(Starlink)计划是由太空探索技术公司(SpaceX)提出的一个巨型低轨卫星互联网星座项目,计划在2019年至2024年间在太空搭建由约1.2万颗卫星组成的“星链”网络,其中1584颗将部署在地球上空550千米处的近地轨道,并从2020年开始工作。该卫星仍在工作。
2D轨道图
3D轨道图
轨道高度分析图
轨道倾角分析图
轨道综合分析图
查看轨道综合分析图